Location: Unspecified
(0.0000°N, 0.0000°E)
Time: 07:51:19
(UTC+00:00)

Courier 1B Rocket - Pass Details

Date: 15 December 2018
Orbit: 920 x 1202 km, 28.2° (Epoch: 18 March)

Event Time Altitude Azimuth Distance (km) Brightness Sun altitude
Rises 17:37:38 0° 293° (WNW) 4,076 9.0 4.0°
Reaches altitude 10° 17:40:30 10° 290° (WNW) 3,124 8.5 3.4°
Maximum altitude 17:48:15 63° 210° (SSW) 1,316 6.1 1.6°
Drops below altitude 10° 17:55:51 10° 130° (SE) 3,069 7.4 -0.1°
Sets 17:58:39 0° 127° (SE) 4,000 7.9 -0.8°
